• In Belarus
  • List of Countries
  • For 7 days
  • Water Temperature
  • Weather Map
  • Weather Widgets
  • user-avatar
    Login

    Hourly Weather Bamenda

    Today, 22 February, Saturday

    Time Temperature Precipitation Wind Pressure Humidity
    00:00 +21°C° 0 mm 1 mps 639 mmHg 34%
    01:00 +21°C° 0 mm 1 mps 639 mmHg 34%
    02:00 +21°C° 0 mm 1 mps 639 mmHg 34%
    03:00 +21°C° 0 mm 1 mps 639 mmHg 34%
    04:00 +20°C° 0 mm 1 mps 639 mmHg 33%
    05:00 +20°C° 0 mm 1 mps 639 mmHg 34%
    06:00 +20°C° 0 mm 1 mps 640 mmHg 35%
    07:00 +19°C° 0 mm 0 mps 640 mmHg 36%
    08:00 +25°C° 0 mm 1 mps 642 mmHg 31%
    09:00 +28°C° 0 mm 1 mps 643 mmHg 26%
    10:00 +32°C° 0 mm 2 mps 644 mmHg 21%
    11:00 +32°C° 0 mm 2 mps 644 mmHg 21%
    12:00 +34°C° 0 mm 3 mps 643 mmHg 20%
    13:00 +34°C° 0 mm 3 mps 643 mmHg 19%
    14:00 +34°C° 0 mm 3 mps 642 mmHg 19%
    15:00 +34°C° 0 mm 3 mps 641 mmHg 19%
    16:00 +34°C° 0 mm 2 mps 640 mmHg 19%
    17:00 +31°C° 0 mm 2 mps 640 mmHg 22%
    18:00 +29°C° 0 mm 1 mps 640 mmHg 24%
    19:00 +27°C° 0 mm 1 mps 640 mmHg 27%
    20:00 +26°C° 0 mm 1 mps 641 mmHg 29%
    21:00 +25°C° 0 mm 1 mps 641 mmHg 31%
    22:00 +23°C° 0 mm 1 mps 641 mmHg 33%
    23:00 +22°C° 0 mm 1 mps 641 mmHg 37%

    Tomorrow, 23 February, Sunday

    Time Temperature Precipitation Wind Pressure Humidity
    00:00 +21°C° 0 mm 1 mps 640 mmHg 40%
    01:00 +20°C° 0 mm 1 mps 640 mmHg 43%
    02:00 +20°C° 0 mm 1 mps 640 mmHg 42%
    03:00 +20°C° 0 mm 1 mps 640 mmHg 41%
    04:00 +17°C° 0 mm 0 mps 640 mmHg 39%
    05:00 +19°C° 0 mm 1 mps 640 mmHg 39%
    06:00 +19°C° 0 mm 1 mps 640 mmHg 38%
    07:00 +19°C° 0 mm 1 mps 641 mmHg 38%
    08:00 +23°C° 0 mm 1 mps 642 mmHg 32%
    09:00 +27°C° 0 mm 1 mps 644 mmHg 25%
    10:00 +31°C° 0 mm 1 mps 645 mmHg 19%
    11:00 +32°C° 0 mm 2 mps 645 mmHg 17%
    12:00 +35°C° 0 mm 2 mps 644 mmHg 16%
    13:00 +36°C° 0 mm 2 mps 644 mmHg 14%
    14:00 +36°C° 0 mm 2 mps 643 mmHg 15%
    15:00 +36°C° 0 mm 2 mps 643 mmHg 15%
    16:00 +35°C° 0 mm 2 mps 642 mmHg 15%
    17:00 +31°C° 0 mm 2 mps 641 mmHg 19%
    18:00 +29°C° 0 mm 2 mps 641 mmHg 23%
    19:00 +26°C° 0 mm 1 mps 640 mmHg 27%
    20:00 +24°C° 0 mm 1 mps 640 mmHg 27%
    21:00 +23°C° 0 mm 1 mps 641 mmHg 27%
    22:00 +22°C° 0 mm 1 mps 641 mmHg 27%
    23:00 +22°C° 0 mm 1 mps 641 mmHg 27%

    Day after tomorrow, 24 February, Monday

    Time Temperature Precipitation Wind Pressure Humidity
    00:00 +21°C° 0 mm 1 mps 641 mmHg 26%
    01:00 +21°C° 0 mm 1 mps 640 mmHg 25%
    02:00 +20°C° 0 mm 1 mps 640 mmHg 25%
    03:00 +20°C° 0 mm 1 mps 640 mmHg 25%
    04:00 +19°C° 0 mm 1 mps 640 mmHg 25%
    05:00 +19°C° 0 mm 1 mps 640 mmHg 26%
    06:00 +19°C° 0 mm 1 mps 640 mmHg 27%
    07:00 +18°C° 0 mm 1 mps 641 mmHg 28%
    08:00 +22°C° 0 mm 1 mps 642 mmHg 24%
    09:00 +26°C° 0 mm 1 mps 644 mmHg 20%
    10:00 +30°C° 0 mm 1 mps 645 mmHg 15%
    11:00 +32°C° 0 mm 1 mps 645 mmHg 14%
    12:00 +34°C° 0 mm 2 mps 644 mmHg 13%
    13:00 +35°C° 0 mm 2 mps 644 mmHg 12%
    14:00 +35°C° 0 mm 2 mps 643 mmHg 13%
    15:00 +35°C° 0 mm 2 mps 642 mmHg 13%
    16:00 +35°C° 0 mm 2 mps 641 mmHg 14%
    17:00 +30°C° 0 mm 2 mps 641 mmHg 19%
    18:00 +27°C° 0 mm 2 mps 640 mmHg 24%
    19:00 +24°C° 0 mm 1 mps 640 mmHg 29%
    20:00 +23°C° 0 mm 1 mps 640 mmHg 30%
    21:00 +22°C° 0 mm 1 mps 640 mmHg 30%
    22:00 +21°C° 0 mm 1 mps 640 mmHg 30%
    23:00 +20°C° 0 mm 1 mps 640 mmHg 35%

    25 February, Tuesday

    Time Temperature Precipitation Wind Pressure Humidity
    00:00 +19°C° 0 mm 1 mps 640 mmHg 40%
    01:00 +19°C° 0 mm 1 mps 640 mmHg 44%
    02:00 +18°C° 0 mm 1 mps 640 mmHg 41%
    03:00 +18°C° 0 mm 1 mps 639 mmHg 38%
    04:00 +18°C° 0 mm 1 mps 639 mmHg 35%
    05:00 +18°C° 0 mm 1 mps 639 mmHg 34%
    06:00 +16°C° 0 mm 0 mps 640 mmHg 33%
    07:00 +15°C° 0 mm 0 mps 640 mmHg 32%
    08:00 +22°C° 0 mm 1 mps 641 mmHg 27%
    09:00 +26°C° 0 mm 1 mps 643 mmHg 22%
    10:00 +30°C° 0 mm 1 mps 644 mmHg 16%
    11:00 +31°C° 0 mm 1 mps 644 mmHg 15%
    12:00 +32°C° 0 mm 2 mps 644 mmHg 15%
    13:00 +35°C° 0 mm 2 mps 643 mmHg 14%
    14:00 +35°C° 0 mm 2 mps 643 mmHg 15%
    15:00 +34°C° 0 mm 2 mps 642 mmHg 16%
    16:00 +34°C° 0 mm 2 mps 641 mmHg 17%
    17:00 +30°C° 0 mm 2 mps 640 mmHg 23%
    18:00 +27°C° 0 mm 1 mps 640 mmHg 29%
    19:00 +23°C° 0 mm 1 mps 639 mmHg 35%
    20:00 +22°C° 0 mm 1 mps 639 mmHg 36%
    21:00 +21°C° 0 mm 1 mps 639 mmHg 36%
    22:00 +20°C° 0 mm 1 mps 640 mmHg 37%
    23:00 +20°C° 0 mm 1 mps 640 mmHg 35%

    26 February, Wednesday

    Time Temperature Precipitation Wind Pressure Humidity
    00:00 +19°C° 0 mm 1 mps 639 mmHg 34%
    01:00 +19°C° 0 mm 1 mps 639 mmHg 33%
    02:00 +19°C° 0 mm 1 mps 639 mmHg 32%
    03:00 +19°C° 0 mm 1 mps 639 mmHg 30%
    04:00 +18°C° 0 mm 1 mps 639 mmHg 29%
    05:00 +18°C° 0 mm 1 mps 639 mmHg 29%
    06:00 +18°C° 0 mm 1 mps 639 mmHg 29%
    07:00 +18°C° 0 mm 1 mps 640 mmHg 29%
    08:00 +23°C° 0 mm 1 mps 641 mmHg 25%
    09:00 +27°C° 0 mm 1 mps 643 mmHg 20%
    10:00 +31°C° 0 mm 1 mps 645 mmHg 16%
    11:00 +32°C° 0 mm 1 mps 644 mmHg 15%
    12:00 +34°C° 0 mm 2 mps 644 mmHg 14%
    13:00 +35°C° 0 mm 2 mps 643 mmHg 14%
    14:00 +35°C° 0 mm 2 mps 642 mmHg 14%
    15:00 +35°C° 0 mm 2 mps 641 mmHg 15%
    16:00 +35°C° 0 mm 2 mps 641 mmHg 16%
    17:00 +30°C° 0 mm 2 mps 640 mmHg 23%
    18:00 +27°C° 0 mm 1 mps 639 mmHg 29%
    19:00 +24°C° 0 mm 1 mps 639 mmHg 36%
    20:00 +23°C° 0 mm 1 mps 639 mmHg 39%
    21:00 +22°C° 0 mm 1 mps 640 mmHg 42%
    22:00 +21°C° 0 mm 1 mps 640 mmHg 44%
    23:00 +21°C° 0 mm 1 mps 640 mmHg 45%

    27 February, Thursday

    Time Temperature Precipitation Wind Pressure Humidity
    00:00 +20°C° 0 mm 1 mps 640 mmHg 46%
    01:00 +20°C° 0 mm 1 mps 640 mmHg 46%
    02:00 +19°C° 0 mm 1 mps 640 mmHg 45%
    03:00 +19°C° 0 mm 1 mps 639 mmHg 44%
    04:00 +19°C° 0 mm 1 mps 639 mmHg 43%
    05:00 +19°C° 0 mm 1 mps 639 mmHg 40%
    06:00 +19°C° 0 mm 1 mps 640 mmHg 37%
    07:00 +17°C° 0 mm 0 mps 640 mmHg 35%
    08:00 +23°C° 0 mm 1 mps 642 mmHg 28%
    09:00 +27°C° 0 mm 1 mps 643 mmHg 22%
    10:00 +31°C° 0 mm 1 mps 645 mmHg 16%
    11:00 +32°C° 0 mm 1 mps 645 mmHg 15%
    12:00 +35°C° 0 mm 2 mps 644 mmHg 14%
    13:00 +36°C° 0 mm 2 mps 644 mmHg 13%
    14:00 +36°C° 0 mm 2 mps 643 mmHg 14%
    15:00 +35°C° 0 mm 2 mps 642 mmHg 15%
    16:00 +35°C° 0 mm 2 mps 641 mmHg 15%
    17:00 +31°C° 0 mm 2 mps 641 mmHg 22%
    18:00 +28°C° 0 mm 2 mps 640 mmHg 28%
    19:00 +25°C° 0 mm 1 mps 640 mmHg 34%
    20:00 +23°C° 0 mm 1 mps 640 mmHg 41%
    21:00 +22°C° 0 mm 1 mps 640 mmHg 49%
    22:00 +21°C° 0 mm 1 mps 640 mmHg 57%
    23:00 +21°C° 0 mm 1 mps 640 mmHg 58%
    Show more